Погода в Гианьяре

Индонезия     8°32′38″S   115°19′29″E
темп.,
°C
ветер,
м/с
пор.,
м/с
влажн.,
%
обл.,
%
осадки,
мм/ч
давл.,
гПа
погр.,
м
28 июня, вт
вт2823:00+22вюв2794100 0.8 1013317
02:00+21вюв169484 1.8 1012186
05:00+20всв159490 0.6 1012110
08:00+22в168894 0.8 1013203
11:00+26юв345865 0.1 10121449
14:00+27юв33519 0.1 10091457
17:00+24юв246414 0.0 1009831
20:00+20ссв228359 0.0 101142
29 июня, ср
ср2923:00+20с118529 0.0 101236
02:00+21ссв1189100 0.2 101025
05:00+21всв1190100 0.4 101030
08:00+22св0192100 1.2 101187
11:00+26юв237575 0.8 1011893
14:00+27ююв3368100 1.3 10081140
17:00+25юв237666 0.1 1008759
20:00+22св1195100 0.3 101027
30 июня, чт
чт3023:00+22ссв1196100 0.3 101128
02:00+21с1196100 0.5 101038
05:00+22всв1294100 0.3 101066
08:00+23в1590100 0.9 1011376
11:00+26вюв3575100 1.2 1010975
14:00+27юв4570100 2.4 10091059
17:00+24вюв3686100 0.9 1009583
20:00+23вюв2892100 1.4 1011481
1 июля, пт
пт123:00+22вюв289597 0.9 1012394
02:00+22в289688 1.8 1011418
05:00+22в289498 0.6 1010430
08:00+22в2893100 1.0 1012476
11:00+25вюв378483 1.8 1012828
14:00+25вюв478460 4.2 1010819
17:00+23вюв2892100 1.3 1010519
20:00+22в289299 1.8 1012407
2 июля, сб
сб223:00+22в2794100 0.4 1012385
02:00+22в1695100 1.1 1011297
05:00+22в1597100 0.9 1010274
08:00+22в1795100 2.3 1012447
11:00+23вюв279593 1.4 1012619
14:00+23вюв279492 3.1 1010610
17:00+22вюв279598 1.2 1009438
20:00+22вюв2797100 1.9 1011484